Tracking 28793 objects as of 20-Apr-2024
HD Live streaming from Space Station
objects crossing your sky now

FLOCK 4S 46

Track FLOCK 4S 46 now!
10-day predictions
FLOCK 4S 46 is classified as:


NORAD ID: 47684
Int'l Code: 2021-006EK
Perigee: 434.1 km
Apogee: 439.1 km
Inclination: 97.3 °
Period: 93.2 minutes
Semi major axis: 6807 km
RCS: Unknown
Launch date: January 24, 2021
Source: United States (US)
Launch site: AIR FORCE EASTERN TEST RANGE (AFETR)
Your satellite tracking list
Your tracking list is empty




NASA's NSSDC Master Catalog

Two Line Element Set (TLE):
1 47684U 21006EK  24111.11801084  .00067675  00000-0  13953-2 0  9994
2 47684  97.3457 175.6752 0003678  84.4670 275.6999 15.45652690180012
Source of the keplerian elements: AFSPC